Location: Los Ranchitos
(37.9930°N, 122.5425°W)
Time: 03:14:19
(UTC+00:00)

ATLAS 3B R/B - Pass Details

Date: 21 September 2020
Orbit: 1016 x 1179 km, 63.8° (Epoch: 04 October)

Event Time Altitude Azimuth Distance (km) Brightness Sun altitude
Rises 04:46:28 0° 333° (NNW) 3,837 6.4 -30.6°
Reaches altitude 10° 04:49:22 10° 343° (NNW) 2,904 5.5 -31.1°
Enters shadow 04:54:32 33° 30° (NNE) 1,744 3.7 -32.0°
